MST,Max TemperatureF,Mean TemperatureF,Min TemperatureF,Max Dew PointF,MeanDew PointF,Min DewpointF,Max Humidity, Mean Humidity, Min Humidity, Max Sea Level PressureIn, Mean Sea Level PressureIn, Min Sea Level PressureIn, Max VisibilityMiles, Mean VisibilityMiles, Min VisibilityMiles, Max Wind SpeedMPH, Mean Wind SpeedMPH, Max Gust SpeedMPH,PrecipitationIn, CloudCover, Events, WindDirDegrees
2013-1-1,30,15,0,22,17,-4,93,75,41,30.30,30.20,30.10,10,10,6,9,4,,0.00,4,Snow,253
2013-1-2,30,21,12,18,11,2,88,70,22,30.36,30.27,30.18,10,10,7,13,4,,0.00,0,,305
2013-1-3,27,21,12,16,10,-1,87,67,28,30.38,30.31,30.19,10,10,5,22,5,,0.00,0,,345
2013-1-4,37,18,0,15,8,-1,84,64,22,30.46,30.36,30.26,10,10,9,6,1,,0.00,0,,193
2013-1-5,48,24,0,14,6,-6,83,54,8,30.50,30.40,30.33,10,9,4,5,2,,0.00,0,,160
2013-1-6,37,22,7,19,11,4,80,58,17,30.35,30.19,29.95,10,10,6,7,2,,0.00,0,,268
2013-1-7,33,24,16,19,14,6,84,59,39,30.06,29.98,29.91,10,10,8,12,4,,0.00,1,,271
2013-1-8,45,27,9,19,13,2,84,55,13,30.30,30.16,30.01,10,10,7,16,4,,0.00,0,,217
2013-1-9,46,34,21,20,15,10,81,55,23,30.44,30.26,30.10,10,10,4,15,4,,0.00,0,,169
2013-1-10,45,34,24,28,17,12,78,53,20,30.08,29.86,29.62,10,10,2,28,7,36,0.04,0,Snow,217
2013-1-11,27,16,6,30,14,-9,93,62,13,30.00,29.81,29.53,10,7,1,30,18,40,0.01,5,Snow,242
2013-1-12,21,6,-9,16,7,-11,93,67,30,30.07,29.99,29.91,10,9,1,15,3,16,0.00,4,Snow,258
2013-1-13,24,8,-7,7,0,-10,76,49,19,30.12,30.03,29.94,10,10,7,14,4,16,0.00,0,,234
2013-1-14,18,6,-5,7,3,-13,80,61,33,30.29,30.10,29.90,10,10,8,18,5,22,0.00,1,,265
2013-1-15,27,9,-9,3,-4,-14,80,52,23,30.54,30.42,30.23,10,10,5,16,3,,0.00,0,,252
2013-1-16,36,20,3,13,4,-4,70,49,28,30.60,30.49,30.37,10,10,10,9,3,,0.00,0,,262
2013-1-17,36,28,19,13,9,3,76,53,31,30.57,30.46,30.37,10,10,6,13,3,,0.00,0,,229
2013-1-18,41,23,5,17,12,4,77,55,29,30.50,30.38,30.27,10,10,10,8,4,,0.00,0,,216
2013-1-19,43,24,5,18,13,3,77,54,21,30.48,30.39,30.31,10,10,10,10,4,,0.00,0,,258
2013-1-20,46,24,3,18,12,1,77,54,24,30.42,30.33,30.21,10,9,2,9,3,,0.00,0,,204
2013-1-21,45,28,10,17,11,4,80,49,12,30.40,30.32,30.24,10,10,10,9,4,,0.00,0,,209
2013-1-22,55,32,9,15,10,6,74,42,14,30.45,30.34,30.24,10,10,10,9,4,,0.00,0,,205
2013-1-23,51,34,18,23,12,8,71,40,13,30.44,30.32,30.23,10,10,5,9,2,,0.00,0,,238
2013-1-24,48,39,30,40,26,11,100,58,29,30.32,30.25,30.18,10,9,0,20,2,,0.02,4,Fog-Rain,21
2013-1-25,45,40,37,45,40,35,100,82,53,30.28,30.15,30.04,10,9,2,7,3,,0.16,5,Rain,186
2013-1-26,48,42,37,47,41,36,100,84,53,30.00,29.89,29.77,10,8,1,26,6,37,0.63,6,Rain-Thunderstorm,246
2013-1-27,46,40,35,38,36,30,93,72,45,29.94,29.86,29.79,10,10,10,22,8,31,0.20,5,Rain,219
2013-1-28,35,28,20,36,28,14,93,72,46,29.90,29.80,29.70,10,8,1,31,13,46,0.12,4,Rain-Snow,226
2013-1-29,30,20,10,25,19,4,93,79,41,30.17,29.92,29.82,10,5,0,34,14,44,0.00,7,Fog-Snow,286
2013-1-30,45,26,7,21,16,6,91,65,31,30.34,30.27,30.20,10,10,10,9,5,,0.00,0,,246
2013-1-31,48,32,15,25,20,12,86,65,27,30.38,30.29,30.23,10,10,5,12,3,,0.00,0,,150